Regional Weather Roundup
Issued by NWS

Home | Current Version | Previous Version | Text Only | Print | Product List | Glossary Off
Versions: 1 2 3 4 5 6 7 8 9 10 11 12 13 14 15 16 17 18 19 20 21 22 23 24 25 26 27 28 29 30 31 32 33 34

000
ASUS45 KSLC 220510
RWRUT

UTAH REGIONAL WEATHER ROUNDUP
NATIONAL WEATHER SERVICE SALT LAKE CITY UT
1100 PM MDT TUE OCT 21 2014

UTZ001>011-023>025-220600-

NORTHERN UTAH

CITY           SKY/WX    TMP DP  RH WIND       PRES   REMARKS
BRIGHAM CITY   CLEAR     46  31  54 W7        30.09S
HILL AFB       CLEAR     46  32  58 NW2       30.09R
LOGAN          CLEAR     38  32  79 SE3       30.11R
OGDEN          CLEAR     44  34  67 NW7       30.08R
PROVO AIRPORT  CLEAR     52  30  43 N5        30.07R
SALT LAKE CITY PTCLDY    49  36  61 NW8       30.07R
VERNAL         CLOUDY    52  43  71 NE7       30.04R
WENDOVER       CLEAR     52  28  40 N10       30.10S
HEBER CITY     PTCLDY    39  30  70 E6        30.09R WCI  35
WEST JORDAN    CLEAR     48  37  66 W8        30.09R

$$

UTZ012>022-026-027-220600-

SOUTHERN/CENTRAL UTAH

CITY           SKY/WX    TMP DP  RH WIND       PRES   REMARKS
BLANDING       PTCLDY    51  39  62 NE8       30.13S
BRYCE CANYON   CLEAR     33  30  88 SW5       30.14S WCI  29
CEDAR CITY     MOCLDY    49  33  54 NE5       30.05R
DELTA          CLEAR     48  24  38 N5        30.06S
HANKSVILLE       N/A     64  34  32 NW8       29.98R
MILFORD        CLEAR     52  28  39 N16       30.05R
MOAB/CYNLANDS  MOCLDY    63  38  39 N5        29.94R
PRICE          PTCLDY    50  40  68 N6        30.03S
ST GEORGE      CLEAR     66  36  32 S9        29.92S
KANAB            N/A     52  37  58 E7        30.05S

$$

REGIONAL REPORTS     COLORADO/ARIZONA

CITY           SKY/WX    TMP DP  RH WIND       PRES   REMARKS
CRAIG, CO      LGT RAIN  46  42  86 SE5       30.13F
GRAND JUNCTION CLOUDY    56  47  71 W6        30.01R
RIFLE          MOCLDY    50  45  83 CALM      30.04R
MONTROSE       CLEAR     48  42  80 SE8       30.07S
CORTEZ         PTCLDY    48  42  80 NE3       30.09S
PAGE, AZ       CLOUDY    68  36  30 SW5       29.97R
GRAND CANYON   CLEAR     40  30  67 CALM      30.14R
KINGMAN        CLEAR     61  44  53 S12       29.97R
FLAGSTAFF      CLEAR     44  37  76 CALM      30.17R

$$

REGIONAL REPORTS    NEVADA/IDAHO/WYOMING

CITY           SKY/WX    TMP DP  RH WIND       PRES   REMARKS
LAS VEGAS, NV  MOCLDY    73  22  14 S12       29.83R
ELY            MOCLDY    37   7  28 NW6       30.11R WCI  32
ELKO           MOCLDY    41  18  39 NE7       30.10R
POCATELLO, ID  CLEAR     40  33  76 S3        30.12R
BURLEY         CLEAR     40  34  79 SW13      30.09S WCI  32
EVANSTON, WY   CLEAR     40  22  48 W3        30.12S
ROCK SPRINGS   CLOUDY    42  31  64 W18G29    30.12R
KEMMERER       CLEAR     34  27  75 SW3       30.13R

$$



USA.gov is the U.S. government's official web portal to all federal, state and local government web resources and services.